Regional Weather Roundup
Issued by NWS State College, PA

Home | Current Version | Previous Version | Text Only | Print | Product List | Glossary Off
Versions: 1 2 3 4 5 6 7 8 9 10 11 12 13 14 15 16 17 18 19 20 21 22 23 24 25 26 27 28 29 30 31 32 33 34 35 36 37 38 39 40 41 42 43 44 45 46 47 48 49 50

965
ASUS41 KCTP 200103
RWRCTP

REGIONAL WEATHER ROUNDUP
NATIONAL WEATHER SERVICE STATE COLLEGE PA
800 PM EST SUN NOV 19 2017

Note: "fair" indicates few or no clouds below 12,000 feet with no
significant weather and/or obstructions to visibility.

* = STATION THAT DOES NOT REPORT PRECIPITATION /E.G. RAIN...SNOW...ETC/
    THUNDER OR FOG.

PAZ002>004-007>009-013>016-020>023-029>032-200200-
WESTERN PENNSYLVANIA

CITY           SKY/WX    TMP DP  RH WIND       PRES   REMARKS
ERIE           CLOUDY    35  19  52 W16G33    29.88R
MEADVILLE      LGT SNOW  29  28  96 W10       29.87R FOG
FRANKLIN*      FLURRIES  30  27  88 NW12G21   29.87R
NEW CASTLE     CLOUDY    33  26  75 W13       29.93R
BEAVER COUNTY  NOT AVBL
BUTLER*        CLOUDY    32  25  75 W10G16    29.91R
PITTSBURGH INT FLURRIES  33  29  85 W16G23    29.92R
PITTSBURGH     LGT SNOW  33  26  75 W10G25    29.92R
INDIANA*       CLOUDY    34  27  75 NW9G21    29.91R
LATROBE        FLURRIES  32  32 100 W8        29.92R
WASHINGTON CO* FLURRIES  33  28  81 W14       29.98R
$$

PAZ004>006-010>012-017>019-024>028-033>037-041-042-045-046-049>053-200200-
CENTRAL PENNSYLVANIA

CITY           SKY/WX    TMP DP  RH WIND       PRES   REMARKS
BRADFORD       LGT SNOW  29  26  89 NW14      29.76R FOG
DUBOIS         CLOUDY    30  25  81 W20G25    29.80R
CLEARFIELD     CLOUDY    33  26  75 W10G22    29.81R
JOHNSTOWN      CLOUDY    31  26  82 W14G29    29.82R
ALTOONA        CLOUDY    36  27  69 W15G24    29.84R
STATE COLLEGE  CLOUDY    34  28  80 W13G21    29.81R
WILLIAMSPORT   CLOUDY    38  30  73 NW12      29.78R
SELINSGROVE    MOCLDY    39  29  67 W8G17     29.81R
FT INDIANTOWN  MOCLDY    40  25  54 W16G25    29.80R
CAPITAL CITY   PTCLDY    40  22  48 W7        29.84R
HARRISBURG     MOCLDY    41  26  55 W7        29.83R
YORK           MOCLDY    39  25  57 W6        29.84R
$$

PAZ038>040-043-044-047-048-054-055-060>062-067>071-200200-
EASTERN PENNSYLVANIA

CITY           SKY/WX    TMP DP  RH WIND       PRES   REMARKS
SCRANTON       CLOUDY    38  29  70 SW12      29.73R
MOUNT POCONO   NOT AVBL
ALLENTOWN      CLOUDY    41  29  62 W12G22    29.76R
QUAKERTOWN*    CLOUDY    41  28  60 W6        29.78R
READING        PTCLDY    40  29  64 W10       29.79R
LANCASTER      PTCLDY    39  27  62 W13       29.81R
COATESVILLE    CLEAR     39  27  60 NW16      29.81R
POTTSTOWN      MOCLDY    40  27  59 W10G16    29.81R
BLUE BELL      CLOUDY    41  28  60 W10G21    29.80R
DOYLESTOWN     CLOUDY    42  27  55 W15G26    29.76R
WILLOW GROVE   NOT AVBL
NORTH PHILA    CLOUDY    46  27  47 W13G29    29.80R
PHILADELPHIA   CLOUDY    46  27  47 W18G25    29.81R
$$




USA.gov is the U.S. government's official web portal to all federal, state and local government web resources and services.